Regional Weather Roundup
Issued by NWS Sioux Falls, SD

Home | Current Version | Previous Version | Graphics & Text | Print | Product List | Glossary On
Versions: 1 2 3 4 5 6 7 8 9 10 11 12 13 14 15 16 17 18 19 20 21 22 23 24 25 26 27 28 29 30 31 32 33 34 35 36 37 38 39 40 41 42 43 44 45 46 47 48 49 50
000
ASUS43 KFSD 310410
RWRFSD

WEATHER ROUNDUP FOR SE SOUTH DAKOTA/SW MINNESOTA/NW IOWA
NATIONAL WEATHER SERVICE SIOUX FALLS SD
1100 PM CDT SAT JUL 30 2016

NOTE: "FAIR" INDICATES FEW OR NO CLOUDS BELOW 12,000 FEET WITH NO
SIGNIFICANT WEATHER AND OR OBSTRUCTIONS TO VISIBILITY.


SDZ038>040-050-052>070-310500-
SOUTHEAST SOUTH DAKOTA

CITY           SKY/WX    TMP DP  RH WIND       PRES   REMARKS
BROOKINGS      MOCLDY    67  60  78 SE9       29.96S
CHAMBERLAIN    CLOUDY    75  67  76 SE12G20   29.87F
HURON          CLOUDY    74  62  66 SE9       29.89F
MADISON        FAIR      66  63  88 SE9       29.96F
MITCHELL       CLOUDY    74  63  68 SE10      29.90F
SIOUX FALLS    CLOUDY    73  60  63 S9        29.96S
WINNER         FAIR      75  68  78 SE17      29.85F
YANKTON        MOCLDY    72  63  73 SE6       29.93F
$$

MNZ071-072-080-081-089-090-097-098-310500-
SOUTHWEST MINNESOTA

CITY           SKY/WX    TMP DP  RH WIND       PRES   REMARKS
FAIRMONT       CLEAR     66  61  82 SE6       29.99S
JACKSON        CLEAR     70  61  73 SE6       30.01R
LUVERNE        CLEAR     63  57  82 CALM      29.99S
MARSHALL       CLEAR     67  61  81 SE6       29.97S
MONTEVIDEO     CLEAR     64  57  77 S5        29.98S
REDWOOD FALLS  CLEAR     66  59  78 SE5       29.97R
TRACY          PTCLDY    69  62  78 S6        29.99S
WINDOM         CLEAR     68  63  83 SE3       30.00R
WORTHINGTON    CLEAR     65  61  87 SE7       30.00R
$$

IAZ001>003-012>014-020>022-031-032-NEZ013-014-SDZ071-310500-
NORTHWEST IOWA

CITY           SKY/WX    TMP DP  RH WIND       PRES   REMARKS
CHEROKEE       CLEAR     66  65  96 CALM      29.99R
DENISON        CLEAR     66  64  94 E6        29.97S
ESTHERVILLE    CLEAR     63  63 100 S5        30.00R
LE MARS        CLEAR     72  64  78 SE8       29.98S
SHELDON        CLEAR     64  63  94 CALM      29.98S
SIOUX CITY     CLEAR     70  62  76 E6        29.96R
SPENCER        CLEAR     64  60  87 CALM      30.00R
STORM LAKE     PTCLDY    66  63  88 SE5       30.01R
$$

ABBREVIATIONS USED IN REMARKS
   TC - TEMPERATURE IN CELSIUS
  WCI - WIND CHILL INDEX
   HX - HEAT INDEX
  VSB - VISIBILITY





USA.gov is the U.S. government's official web portal to all federal, state and local government web resources and services.